GFSMA_850_thetae_057.txt.gz
Theta_e
345 349 348 345 345 345 345 345 347 346 343 344 342 346 344 343 343 342 337 333 333 335 333 325 324 329 329 325 327 327 327 328 326 328 332 333 331 327 330 328 325 325 324
349 349 348 350 349 347 345 343 345 346 345 341 338 343 342 341 341 337 341 341 328 333 335 334 334 330 328 329 327 329 325 324 329 329 328 332 334 333 329 326 324 324 328
349 349 346 348 350 346 346 345 345 346 342 342 338 341 340 340 340 337 340 341 339 332 332 335 337 337 334 332 331 333 332 329 325 323 324 326 328 330 332 331 329 325 324
348 347 349 349 349 347 345 347 343 340 340 341 340 340 337 339 338 337 338 339 341 338 337 334 334 335 335 334 333 333 335 332 331 329 327 325 326 332 329 326 325 324 323
344 345 347 344 347 347 348 345 348 345 343 343 339 337 334 339 339 338 339 339 337 341 341 341 336 335 335 334 333 332 332 334 334 336 337 335 332 332 333 334 333 332 332
345 343 347 349 348 347 345 343 344 344 345 338 340 337 338 340 340 339 339 340 340 340 342 341 340 338 337 336 336 336 336 332 332 334 336 338 338 338 334 336 336 331 333
348 345 344 351 353 347 348 345 345 340 345 337 333 337 337 339 340 339 339 336 339 341 341 338 341 342 340 341 338 334 337 337 334 333 334 332 336 338 339 339 339 339 339
348 348 347 349 351 350 349 348 342 346 344 335 337 338 336 337 340 340 340 340 340 338 336 336 337 340 339 338 333 330 332 333 331 329 331 333 333 334 333 334 333 332 333
346 349 349 349 351 349 350 348 344 346 344 336 337 340 340 337 340 340 338 338 338 337 336 336 331 335 337 339 337 325 322 323 326 330 331 327 321 319 319 319 319 318 317
347 348 351 350 348 350 348 349 342 341 346 343 337 338 342 343 339 338 337 337 337 338 337 335 338 336 331 329 328 327 322 319 319 319 322 323 324 324 322 321 320 320 320
348 350 348 350 349 348 345 351 348 343 345 345 340 333 341 341 340 340 337 339 338 337 338 338 339 338 338 337 332 327 325 322 322 324 326 328 329 329 328 326 323 321 320
348 351 351 349 351 352 345 351 351 350 341 344 341 338 336 338 338 340 339 340 339 339 340 340 338 339 338 337 338 335 331 329 328 328 329 329 329 329 329 328 328 327 326
347 348 351 351 347 344 347 350 352 352 344 343 343 338 337 337 337 339 337 339 341 340 340 341 341 340 340 339 338 338 338 337 333 330 329 329 329 329 329 328 328 328 328
349 349 352 351 349 347 343 344 347 349 346 335 340 338 337 338 338 338 338 338 337 340 341 340 341 340 339 339 338 337 338 337 337 336 332 330 330 330 329 328 327 327 326
348 351 352 352 351 350 349 344 345 349 347 346 332 329 330 337 338 337 337 337 336 337 339 341 339 338 339 339 338 337 337 337 336 335 334 334 333 331 329 326 326 326 326
345 353 354 353 351 350 349 348 343 349 351 346 338 333 328 333 337 338 339 338 336 337 337 337 339 339 337 337 337 336 334 336 335 332 334 333 331 329 328 326 326 326 326
347 351 350 353 353 351 350 349 340 345 347 346 347 342 333 328 332 336 337 338 336 336 336 336 337 339 338 337 336 335 333 332 330 331 328 329 332 331 327 329 329 329 329
337 354 354 354 355 355 352 351 342 340 342 343 343 344 340 334 332 330 333 332 333 333 333 331 335 338 339 337 337 337 336 333 330 328 335 336 336 335 333 331 331 331 330
333 336 353 354 353 354 355 353 349 337 334 338 340 346 343 345 341 333 333 331 331 332 332 334 332 336 338 338 338 338 338 336 335 333 331 335 336 334 333 333 333 332 331
335 336 340 344 348 350 349 348 347 346 343 335 332 333 336 341 336 336 335 331 331 333 333 334 335 338 338 339 339 338 338 337 336 336 335 335 335 335 334 333 334 332 332
336 337 339 341 343 346 347 347 346 346 346 345 340 335 333 331 331 334 335 336 333 331 333 335 336 337 337 338 338 336 338 336 337 337 337 337 337 336 336 335 333 333 332
337 340 339 341 343 343 342 343 343 344 344 345 345 344 340 336 334 333 333 335 335 338 335 331 332 335 335 335 334 334 334 338 338 338 338 338 337 336 336 335 334 333 330
345 343 344 344 342 340 339 339 340 342 342 343 343 344 345 344 344 342 341 341 341 340 342 342 339 332 329 330 334 335 333 339 339 339 338 336 335 336 335 334 334 331 329
351 350 348 345 343 339 337 337 338 341 341 341 341 342 345 346 347 349 349 349 348 347 346 349 347 345 340 331 333 334 334 336 339 339 338 337 333 335 332 333 332 330 325
356 355 354 352 347 343 341 338 341 345 345 341 340 343 347 350 352 354 354 354 353 352 352 351 351 350 349 341 336 335 337 335 336 338 338 334 334 332 332 332 329 326 321
356 356 355 353 351 348 348 347 348 351 347 345 347 347 353 355 358 358 359 358 357 356 355 354 354 353 351 344 340 336 337 332 334 337 337 333 334 332 330 329 326 321 318

GFSMA_850_thetae_060.txt.gz
Theta_e
344 348 347 345 344 345 343 346 345 343 344 342 345 342 341 343 342 338 336 328 334 330 326 327 327 329 324 324 324 325 325 328 326 328 332 331 329 326 328 327 325 325 324
346 344 346 347 347 344 342 343 343 343 343 343 343 342 341 341 340 340 340 332 330 334 334 333 329 327 328 326 328 325 324 324 327 327 328 331 334 332 328 325 323 323 328
347 347 345 346 347 343 343 343 344 344 343 343 340 340 341 340 338 341 340 338 336 330 334 336 335 335 332 329 329 331 329 326 324 324 324 326 327 330 330 330 329 325 323
345 345 348 347 347 346 344 343 340 341 338 339 340 341 339 338 339 339 339 340 339 337 336 334 334 335 334 334 333 332 333 333 331 329 327 325 325 329 328 325 326 324 323
341 344 346 347 347 345 345 343 343 342 340 341 337 338 336 338 337 339 339 337 340 341 341 336 334 334 333 333 333 333 333 335 334 335 336 335 331 331 332 333 332 332 332
343 345 346 346 347 345 343 344 344 344 343 339 338 335 335 339 339 338 339 338 340 340 341 339 338 335 335 336 336 335 335 331 331 331 335 336 338 337 338 334 336 337 332
347 346 342 346 347 347 347 344 344 343 343 338 339 338 338 339 339 338 339 338 339 339 337 337 340 341 339 340 338 335 336 336 336 334 333 333 334 337 338 338 338 338 338
348 347 344 347 349 348 346 347 346 341 342 334 335 337 337 339 340 339 339 337 339 337 336 336 337 339 339 338 333 331 329 329 332 330 331 334 333 333 334 333 330 326 324
349 347 345 345 350 347 349 348 344 343 343 335 337 337 338 336 339 340 340 340 338 337 336 336 336 332 330 336 334 325 321 321 324 329 331 330 322 319 320 320 320 319 319
349 347 346 348 349 349 349 349 347 343 343 336 337 338 340 339 340 339 338 338 337 339 337 336 337 337 337 330 328 326 324 320 319 320 320 322 324 325 323 321 319 319 320
346 346 347 347 349 347 346 347 348 341 345 343 339 334 341 342 339 337 336 337 338 338 337 337 339 338 338 337 337 328 328 323 321 323 325 327 328 329 328 327 326 325 324
343 346 349 350 346 345 346 345 349 345 344 345 342 334 337 340 340 339 339 338 339 338 338 338 340 339 339 338 336 337 335 334 329 328 328 329 329 329 328 328 328 328 327
344 345 348 350 350 347 349 344 347 350 348 342 343 337 338 334 339 338 338 338 339 340 339 339 340 340 340 339 338 337 337 337 337 333 330 329 329 329 329 328 328 327 328
345 345 347 348 349 350 347 348 344 345 351 348 342 342 337 336 335 338 338 338 338 339 340 340 340 340 340 339 339 337 337 336 336 336 336 333 330 329 329 329 327 326 326
343 346 347 348 351 350 348 346 345 341 346 345 336 339 340 336 337 338 338 337 338 337 337 337 340 340 340 339 339 337 337 336 335 334 333 333 333 332 331 330 327 326 326
344 345 346 349 352 352 351 349 348 344 342 345 343 335 330 329 335 338 338 337 337 337 337 337 338 339 340 338 338 337 336 336 335 334 331 329 331 331 330 328 325 327 328
340 344 344 351 354 353 353 350 349 348 342 343 343 335 330 328 330 335 336 336 337 337 336 335 336 337 338 338 337 337 336 336 333 333 332 331 328 330 330 328 330 330 331
337 340 342 346 350 350 352 351 350 350 342 337 339 340 334 335 330 328 333 333 334 335 337 334 334 336 337 338 338 337 336 336 336 334 332 331 332 334 335 334 331 332 333
332 335 340 348 350 351 352 352 351 350 348 333 335 334 332 337 336 335 331 329 330 334 336 336 331 332 334 336 338 338 337 336 337 336 334 331 332 334 336 334 332 332 334
331 333 334 338 351 352 352 352 350 347 346 344 339 332 331 333 334 339 342 340 336 333 332 334 336 335 334 334 337 338 337 337 338 337 335 336 332 333 336 334 333 332 333
332 331 334 335 336 348 352 351 349 348 346 345 345 344 342 335 330 330 333 333 338 342 342 336 335 336 336 336 336 336 338 338 338 338 336 337 337 335 335 334 334 334 333
334 332 331 332 334 335 339 342 344 345 345 345 345 344 343 344 344 341 338 336 335 336 342 345 344 337 334 335 335 337 338 339 339 336 338 337 337 337 336 334 333 333 333
337 336 334 333 334 334 336 338 340 342 343 344 344 343 342 342 344 344 344 344 344 343 343 345 346 344 344 344 340 336 336 338 336 336 337 335 337 338 338 334 334 333 333
349 347 345 341 339 338 338 339 340 342 343 342 341 341 343 343 343 344 346 347 348 349 350 350 350 348 348 347 347 347 344 336 337 338 338 333 335 338 336 333 333 333 331
354 354 353 352 348 346 345 346 348 348 347 344 344 342 343 347 349 351 352 352 353 355 355 356 356 355 355 354 354 351 345 340 339 338 334 332 335 337 333 331 331 331 327
354 355 355 354 354 354 353 352 352 352 349 347 346 345 345 347 352 357 359 358 357 358 357 356 355 355 356 357 356 354 351 342 340 336 333 331 336 336 332 331 331 328 322

GFSMA_850_thetae_063.txt.gz
Theta_e
346 346 345 344 345 343 344 343 342 343 344 344 340 339 341 341 339 336 331 332 331 328 326 326 328 327 324 323 322 324 328 328 329 330 330 330 328 326 326 326 324 324 325
344 345 345 346 345 343 340 345 342 344 342 340 340 341 340 341 341 338 334 329 333 333 330 328 326 328 328 325 327 325 325 326 326 327 329 333 334 333 330 327 327 324 324
347 345 345 348 345 343 343 343 343 343 340 341 340 340 341 340 339 339 339 335 331 332 335 335 334 333 333 330 328 330 328 326 325 325 325 325 326 330 329 332 330 328 325
344 343 346 348 345 342 344 339 339 341 342 340 340 340 340 339 337 340 341 339 336 336 334 334 335 336 335 336 337 336 335 335 332 331 328 326 325 325 334 332 328 329 328
340 341 346 348 348 344 344 339 339 340 340 341 340 338 338 339 337 339 340 338 339 339 340 335 334 334 333 333 335 337 336 335 335 334 335 336 336 332 331 333 333 334 334
344 341 344 345 345 344 344 342 343 342 342 340 339 335 335 339 340 338 340 338 339 339 340 338 338 335 334 335 335 335 334 334 330 330 332 335 335 338 338 338 337 337 338
345 346 342 346 346 344 344 342 344 344 342 337 337 337 337 338 339 339 339 340 338 337 335 336 339 340 338 339 339 335 334 336 335 333 333 333 332 334 335 336 337 337 336
344 347 346 343 347 348 347 343 345 344 341 338 338 336 337 338 339 339 338 336 338 338 335 333 334 336 338 336 332 333 328 329 330 331 329 331 333 332 332 327 320 318 317
344 347 346 344 346 347 345 346 343 342 343 334 336 337 336 338 340 339 339 338 339 338 336 335 336 332 333 331 330 326 323 320 322 324 328 329 325 320 320 321 320 319 319
343 347 346 345 345 348 346 346 348 343 344 335 337 337 337 337 338 340 339 339 338 337 337 336 336 337 336 334 331 326 325 320 319 320 320 320 323 325 325 324 321 320 319
343 343 344 346 347 347 347 346 348 341 343 337 335 336 340 340 337 339 338 337 337 337 338 337 337 338 338 337 335 331 329 326 323 322 323 326 328 328 327 326 326 326 326
342 341 343 346 347 347 347 344 346 347 341 344 342 338 335 342 339 338 338 338 337 338 339 338 338 339 339 339 337 336 335 336 332 328 328 328 329 329 328 327 327 327 327
341 341 343 346 348 349 347 347 345 348 341 343 344 341 333 337 339 340 339 339 338 339 339 339 339 339 339 339 339 338 336 336 336 336 332 330 329 329 329 328 328 327 326
343 343 344 346 347 350 350 348 347 343 349 346 341 341 340 337 335 337 338 338 338 338 338 339 339 340 340 340 339 339 338 336 336 336 336 335 333 330 329 329 328 327 326
341 343 344 345 346 349 350 349 345 344 345 348 344 342 342 339 336 335 335 338 337 337 338 338 338 337 338 340 339 338 338 336 336 336 335 334 333 332 332 331 329 327 326
338 340 343 345 346 347 350 350 349 347 344 341 343 341 337 340 340 336 336 337 337 337 337 336 336 337 337 338 339 339 338 337 337 336 335 334 331 331 330 330 330 326 327
334 340 342 343 347 348 351 352 351 349 348 345 340 344 341 337 333 333 334 336 337 337 336 333 334 334 336 336 337 338 338 337 336 336 335 335 334 332 333 331 328 327 329
333 336 340 343 344 348 353 352 352 352 349 348 341 339 342 341 334 330 328 332 335 336 337 335 332 331 334 334 335 336 337 337 337 336 335 335 335 332 331 332 333 330 329
333 333 337 340 342 342 348 352 351 351 350 349 348 340 332 337 340 337 335 331 329 331 335 336 332 331 332 334 335 334 335 337 337 337 336 336 335 334 334 334 335 333 331
335 332 332 334 337 339 343 348 348 349 347 348 347 344 341 333 331 332 333 336 338 339 337 335 334 333 332 332 334 335 335 334 336 338 337 336 336 335 334 332 334 335 333
334 332 330 330 332 333 336 340 346 346 347 347 345 343 343 343 342 340 336 332 331 334 339 343 344 342 343 342 339 335 335 335 335 336 337 337 337 336 336 334 334 335 333
335 336 333 330 330 332 332 332 335 343 346 347 345 343 343 343 344 344 344 344 344 343 341 341 341 342 339 340 342 344 344 339 338 336 338 338 338 337 337 334 335 336 332
336 336 335 336 334 331 331 332 332 334 338 342 343 342 343 342 343 343 344 345 346 347 347 348 348 347 347 347 349 350 350 349 347 345 339 338 338 338 337 334 332 335 332
340 339 338 337 336 334 332 331 332 335 337 338 339 340 341 342 343 343 345 347 346 346 350 351 352 352 354 355 355 355 354 350 346 343 341 339 338 338 337 331 332 336 332
346 348 349 347 346 344 342 341 340 341 341 341 343 344 344 343 343 347 349 350 350 352 353 354 355 355 356 355 354 354 352 347 345 344 341 339 336 336 332 331 335 333 331
350 351 352 353 353 353 353 353 352 351 350 351 350 350 349 349 351 353 354 355 355 356 357 357 356 356 356 355 355 354 354 351 347 342 340 339 336 336 332 332 333 331 331

GFSMA_850_thetae_069.txt.gz
Theta_e
344 344 344 344 344 342 341 342 343 344 343 340 340 339 340 338 335 329 331 330 329 327 329 329 330 325 324 322 324 326 328 328 328 328 329 333 332 333 331 331 329 326 323
345 345 343 344 344 343 342 342 341 343 342 340 340 340 340 340 338 335 331 335 334 335 330 328 329 328 326 325 325 324 324 329 325 326 326 326 330 333 332 331 330 328 330
346 343 344 344 343 342 344 341 343 342 341 340 341 340 340 339 339 338 335 333 336 334 334 334 334 336 338 332 328 328 329 329 327 326 325 324 324 324 325 333 332 329 330
344 346 345 343 342 343 343 340 341 341 341 340 340 339 339 338 339 339 339 336 335 340 336 334 334 335 335 334 335 335 334 332 334 334 334 335 333 331 329 330 332 333 334
344 345 347 345 342 343 337 338 339 340 339 340 339 338 337 339 338 340 339 339 338 338 339 336 335 333 333 333 338 338 335 334 332 332 331 331 332 335 336 337 337 338 337
342 344 345 345 345 342 340 340 340 340 341 339 338 335 337 338 339 339 338 339 339 338 338 336 338 336 336 336 336 336 334 332 334 334 332 332 332 332 332 336 336 335 335
344 343 344 345 345 341 342 343 341 341 340 338 337 336 337 337 337 337 337 338 338 338 336 334 334 339 338 336 334 334 334 334 335 336 334 333 330 333 332 332 330 322 318
343 344 345 344 345 345 342 341 341 342 341 338 336 335 339 338 337 337 337 337 337 338 337 335 335 331 333 334 335 332 327 323 325 326 326 330 329 330 326 319 319 319 319
343 343 345 345 344 346 345 344 342 342 341 340 337 337 336 337 337 337 338 339 338 337 338 336 336 336 334 330 329 326 326 322 320 321 324 326 324 320 322 322 321 319 319
342 342 343 347 346 345 345 342 344 343 341 343 336 335 335 335 339 340 338 337 337 337 337 337 336 337 338 336 334 327 328 324 321 319 319 319 321 325 326 325 324 324 324
344 342 342 345 344 345 345 346 343 345 344 341 337 336 336 336 337 340 340 340 338 338 337 338 338 338 338 338 337 333 331 331 327 325 324 324 326 327 327 326 325 326 326
343 343 342 342 344 345 346 346 345 345 346 341 341 337 335 339 341 342 342 341 339 339 338 338 339 339 339 339 339 338 337 334 334 333 329 328 328 328 328 328 327 326 326
339 339 339 341 341 344 346 346 347 346 344 346 343 342 342 341 338 334 336 341 340 341 338 336 338 338 339 339 339 339 338 338 336 334 333 333 332 331 329 329 329 328 327
336 332 335 337 340 343 347 348 349 347 347 345 346 340 342 343 342 338 337 337 338 340 340 335 336 336 337 337 337 338 339 339 338 337 335 334 334 334 333 331 329 329 329
340 333 331 337 337 341 345 346 348 349 348 347 343 345 348 347 344 341 341 338 338 339 339 340 335 334 334 334 335 336 337 338 339 339 338 336 335 334 333 332 332 331 331
342 339 331 335 339 342 344 344 345 346 349 349 345 344 342 345 345 340 340 342 342 341 340 339 338 331 331 331 332 333 333 334 334 336 338 338 338 336 335 334 332 332 331
343 340 335 333 337 340 343 345 345 346 347 349 350 349 347 343 341 341 339 338 338 336 335 334 331 329 329 330 331 331 331 331 332 332 333 336 338 338 337 335 333 332 333
344 343 337 331 333 337 342 346 346 347 348 349 350 351 351 350 346 342 340 339 339 337 334 329 329 330 332 333 333 335 336 336 336 337 335 333 334 336 337 337 336 335 334
344 344 339 334 330 331 336 341 345 347 348 350 350 350 349 349 347 345 340 337 336 337 338 337 334 335 335 331 330 329 331 334 338 341 342 342 342 340 335 337 338 337 335
344 344 342 335 332 330 331 335 342 345 346 348 348 349 348 346 341 340 341 339 338 336 336 338 339 343 343 341 343 344 345 346 348 349 351 352 351 348 345 338 337 337 336
344 344 343 340 334 332 330 329 332 335 337 340 342 342 343 342 340 341 344 343 344 344 345 351 351 350 350 351 351 351 351 350 351 352 352 353 352 350 347 346 340 336 338
343 344 344 342 340 336 330 328 328 329 330 333 333 333 337 339 339 340 341 342 346 347 346 345 346 351 347 351 353 354 355 354 354 353 353 354 352 351 349 347 345 342 339
342 342 343 343 341 338 333 330 330 330 329 329 329 329 330 331 332 334 336 338 340 341 342 341 343 343 346 350 354 354 356 356 356 354 354 353 351 349 344 344 342 341 340
342 340 340 340 339 335 333 332 332 333 332 330 329 328 329 330 331 331 331 333 334 336 336 338 342 345 350 354 355 355 357 355 354 353 352 352 347 345 344 342 342 339 337
342 340 339 339 337 335 333 333 335 337 336 333 333 332 331 330 329 331 333 334 336 339 342 345 348 352 354 353 354 353 352 353 353 354 352 349 347 345 343 340 337 336 335
341 340 338 335 333 333 334 336 338 340 340 338 336 335 335 335 335 336 339 342 346 349 352 354 357 356 354 354 353 352 353 355 356 353 350 348 344 342 336 334 335 335 335

GFSMA_850_thetae_072.txt.gz
Theta_e
346 349 349 351 350 349 348 349 348 347 348 347 347 347 345 344 341 340 343 330 327 333 329 330 327 324 323 323 324 325 327 327 326 327 329 334 335 334 333 330 329 327 325
346 349 348 351 350 349 348 349 346 349 347 347 346 347 346 346 344 342 342 338 334 331 332 328 330 327 325 325 325 325 324 328 325 326 326 325 325 326 330 331 332 328 333
345 345 350 351 350 349 345 346 342 348 344 346 346 345 345 347 344 344 342 343 341 334 334 335 334 340 338 333 329 330 332 333 332 330 330 328 327 325 325 329 332 333 333
345 345 348 349 345 348 349 348 347 345 343 345 344 343 343 344 345 345 344 344 343 346 339 334 333 334 333 333 334 334 335 334 334 334 334 334 335 335 336 335 334 336 335
344 351 346 346 344 346 346 345 345 346 344 342 342 342 344 343 343 341 344 345 343 342 344 340 335 332 331 332 336 338 337 335 334 332 331 330 330 333 334 335 337 337 336
342 349 345 346 347 346 346 346 345 344 343 340 339 341 343 343 342 342 343 342 342 342 341 342 345 346 337 337 337 336 335 333 333 335 334 332 331 332 332 332 332 332 326
343 342 351 345 343 347 350 344 345 342 342 342 339 341 340 342 342 341 340 341 342 344 343 342 343 343 344 336 334 329 328 326 327 328 334 334 328 330 331 330 323 319 319
343 346 348 347 346 346 344 346 347 346 343 341 340 339 339 337 339 340 341 341 342 343 343 344 343 333 337 342 341 329 326 324 322 322 323 324 328 327 323 320 320 319 319
344 344 344 347 346 344 348 349 348 348 343 343 340 341 336 339 340 341 343 342 342 343 343 344 344 343 336 340 335 335 329 324 321 320 321 323 321 320 323 323 322 322 322
345 347 344 343 343 351 345 347 348 349 345 342 340 340 340 340 342 343 341 343 344 343 343 343 343 344 338 338 335 330 330 327 324 322 321 320 321 325 326 325 324 324 325
344 344 343 343 343 350 347 345 343 345 347 346 340 339 340 342 342 343 342 342 342 343 343 344 343 343 344 342 344 340 333 331 332 328 326 325 326 327 328 326 325 326 326
349 345 348 342 341 348 345 351 350 343 349 346 346 341 340 341 342 344 344 344 343 343 342 342 343 344 344 344 343 339 338 337 335 332 332 330 328 328 328 328 327 327 326
346 347 343 340 348 342 348 349 346 347 345 351 342 345 344 343 343 342 341 342 342 342 342 341 342 343 344 345 344 341 339 339 338 337 335 333 332 332 331 330 329 328 328
345 347 349 347 339 348 351 350 349 350 352 348 345 346 347 347 347 345 343 342 341 340 341 340 342 342 343 343 343 336 337 337 339 339 339 338 336 334 332 333 332 330 329
348 348 347 344 346 343 342 353 352 351 351 348 354 352 351 349 348 347 346 343 341 341 341 342 343 342 339 342 341 333 333 333 334 336 336 338 339 338 336 334 333 332 332
347 347 342 339 341 342 338 343 351 352 352 352 352 353 348 350 351 351 349 346 346 345 343 342 341 342 343 335 333 331 331 331 331 331 331 333 334 336 338 338 337 335 333
344 343 343 339 336 345 342 342 346 350 353 353 352 355 354 351 350 348 350 350 347 347 346 343 341 341 340 333 331 332 334 334 337 336 333 335 336 335 334 336 338 337 335
344 344 343 340 337 344 347 341 343 350 351 352 353 356 356 356 354 349 351 351 349 349 349 346 346 346 347 348 345 336 332 336 341 344 343 345 346 343 341 339 336 338 337
343 344 343 343 338 333 343 342 341 344 351 354 355 356 356 357 356 355 355 353 351 353 352 352 349 347 346 346 347 349 351 351 351 350 350 349 349 350 350 346 342 337 337
343 343 343 341 338 333 332 338 346 339 344 352 355 356 357 357 356 355 355 355 354 352 350 351 350 350 350 350 351 352 352 352 353 353 353 353 353 352 352 350 348 346 338
343 343 343 342 340 336 338 330 332 337 338 341 350 351 352 347 346 346 353 353 354 354 352 350 349 348 347 348 350 351 352 353 353 356 356 355 354 353 351 349 346 347 345
344 344 343 342 342 340 342 330 330 335 331 332 335 337 336 337 336 337 339 340 342 347 348 353 350 349 351 351 352 352 352 355 358 357 356 356 353 351 347 346 344 341 342
344 343 343 343 341 339 335 331 329 331 333 333 329 329 332 344 342 333 331 332 335 336 339 339 339 339 338 346 354 355 357 357 355 354 353 353 353 349 346 346 344 341 341
345 344 342 341 342 340 335 332 332 335 336 333 331 330 328 327 328 329 329 331 331 330 332 333 333 334 338 351 356 356 357 355 354 353 355 354 349 347 343 342 338 338 338
345 345 344 342 340 337 335 333 336 338 337 333 332 330 329 329 328 328 329 329 329 330 333 334 336 342 351 353 356 355 355 355 355 356 355 350 346 343 342 337 336 336 335
344 343 341 339 337 335 335 334 335 338 339 336 334 331 331 331 330 331 332 333 332 332 336 346 356 358 358 358 355 354 355 355 357 354 352 348 345 343 338 336 335 334 334

GFSMA_850_thetae_075.txt.gz
Theta_e
351 350 350 349 350 347 348 348 345 348 346 344 344 345 342 341 341 345 336 328 326 327 328 328 324 323 322 324 326 327 328 328 327 327 328 331 334 332 334 330 331 326 331
352 350 350 349 348 349 348 348 348 344 344 345 344 344 343 343 341 344 344 334 332 330 327 327 326 325 324 325 324 324 324 328 325 325 325 325 324 324 325 330 333 331 331
347 351 350 350 349 350 346 344 343 344 346 342 344 342 343 345 342 341 345 345 341 337 332 334 335 337 335 332 329 330 333 334 334 334 333 334 334 332 330 328 330 333 334
348 351 351 351 349 350 348 347 347 346 345 341 343 343 343 344 342 343 341 344 347 346 342 336 331 332 332 333 334 334 334 335 334 333 333 333 332 332 334 335 337 337 338
349 352 352 351 348 349 346 346 347 345 345 342 343 342 341 339 342 344 344 344 343 343 348 346 334 332 331 332 333 338 336 335 333 332 331 329 330 331 331 331 333 334 333
351 353 352 351 347 347 345 345 346 343 341 343 341 342 344 344 339 340 343 344 343 342 343 343 343 348 342 336 336 334 335 333 333 335 335 333 332 330 332 332 331 327 319
352 349 352 349 350 348 349 345 344 341 340 339 338 340 340 339 341 340 341 341 341 343 343 344 344 348 346 344 334 327 325 324 324 325 325 329 327 328 329 327 320 319 319
353 351 353 346 346 350 351 348 349 344 341 340 340 340 339 337 339 340 340 341 342 344 344 344 343 339 342 344 344 330 325 325 323 321 321 322 325 326 322 320 322 321 320
352 355 347 352 347 350 350 350 346 350 344 339 342 343 341 340 341 340 342 343 344 344 343 344 345 346 343 342 341 339 340 327 324 321 321 321 321 320 323 325 324 322 323
352 352 352 353 351 349 352 352 349 351 350 341 338 342 344 344 345 342 342 344 345 344 344 344 345 346 346 347 345 335 330 329 329 326 325 323 323 324 326 326 324 324 324
352 351 352 353 352 350 351 353 351 348 346 348 340 340 342 343 341 345 344 344 344 344 344 346 344 345 345 346 346 345 341 335 332 331 330 328 327 326 327 327 326 325 325
351 352 351 352 352 354 350 351 349 343 351 347 346 342 342 343 345 344 344 343 344 344 343 343 344 344 345 346 347 343 341 339 338 337 335 332 331 330 329 328 328 327 326
347 349 348 352 352 344 356 353 347 351 346 349 344 347 343 344 344 343 343 343 343 343 343 344 343 344 345 346 346 345 344 338 338 338 338 338 337 335 333 331 331 329 328
345 347 348 352 352 354 352 353 352 352 349 350 352 350 351 347 347 346 345 344 344 343 343 343 343 344 345 345 345 342 338 335 333 334 334 335 337 338 338 337 334 333 331
347 348 349 353 352 351 353 352 352 351 353 352 354 353 351 349 348 348 347 346 344 344 344 345 346 344 343 343 344 343 336 334 331 330 331 332 333 334 335 338 338 336 334
349 351 350 350 351 351 352 352 351 352 353 349 354 353 352 352 351 351 350 349 347 346 346 345 345 344 344 344 344 337 334 335 338 339 338 339 339 337 335 335 337 337 334
352 350 352 352 349 350 352 352 349 350 354 352 352 356 356 352 353 351 351 351 350 348 348 348 347 345 344 345 344 347 348 348 348 346 345 345 345 347 347 344 340 337 338
350 350 347 351 350 348 350 352 354 349 352 353 354 353 354 355 355 351 352 351 351 352 353 350 351 351 351 350 349 349 351 353 352 352 352 351 352 352 351 351 349 348 343
342 341 345 348 349 349 348 352 353 354 351 352 354 355 355 355 354 356 357 356 355 354 356 357 354 350 348 349 351 352 352 353 354 354 353 353 354 355 355 354 351 350 349
338 340 342 344 346 347 345 347 351 351 353 352 353 354 355 356 356 357 357 355 356 354 354 354 353 352 350 350 349 350 352 350 352 353 354 357 358 356 353 353 351 346 346
340 339 341 343 343 348 349 343 341 348 348 346 352 354 355 355 355 357 357 355 357 357 356 353 351 349 347 347 353 351 352 351 350 355 360 358 355 354 354 351 349 346 345
339 340 341 342 342 349 348 346 344 338 343 343 340 338 339 346 349 344 340 338 338 342 344 351 350 349 349 351 352 350 352 353 359 359 358 356 355 353 351 348 344 344 345
341 342 342 343 342 339 344 345 344 341 342 337 332 331 334 346 346 343 338 333 331 331 333 335 335 335 335 336 341 351 357 358 358 357 356 355 354 351 347 345 343 340 337
343 344 344 343 342 341 339 337 339 340 338 335 334 331 330 328 330 335 338 338 335 331 328 332 334 336 339 349 354 354 356 356 356 357 355 356 351 347 344 342 338 337 337
345 346 346 345 342 339 340 335 337 339 341 337 334 332 331 330 327 327 328 329 329 330 333 338 341 345 349 353 358 359 358 357 357 356 360 354 350 346 343 337 336 335 334
345 348 349 346 343 340 339 339 337 338 346 341 335 331 329 328 328 328 330 331 332 331 333 337 342 351 359 364 361 360 361 358 358 357 356 353 350 345 340 336 334 333 333